{"data":{"norad_id":56846,"epoch":"2026-05-25T04:33:56.577024Z","epoch_age_seconds":58889,"freshness":"FRESH","line1":"1 56846U 23081A   26145.19023816  .00009346  00000+0  40163-3 0  9999","line2":"2 56846  97.3708 215.7057 0001143  90.5993 269.5374 15.22880322164512","mean_motion":15.22880322,"eccentricity":0.0001143,"inclination_deg":97.3708,"raan_deg":215.7057,"arg_perigee_deg":90.5993,"mean_anomaly_deg":269.5374,"bstar":0.00040163,"rev_number":16451,"period_min":94.557660191501,"perigee_km":496.37195446104,"apogee_km":497.94364685247,"semimajor_km":6875.2948006568,"source":"CELESTRAK","updated_at":"2026-05-25T13:37:59.735565Z"}}